Regional Weather Roundup
Issued by NWS Cleveland, OH

Home | Current Version | Previous Version | Graphics & Text | Print | Product List | Glossary On
Versions: 1 2 3 4 5 6 7 8 9 10 11 12 13 14 15 16 17 18 19 20 21 22 23 24 25 26 27 28 29 30 31 32 33 34 35 36 37 38 39 40 41 42 43 44 45 46 47 48 49 50
000
ASUS41 KCLE 281510
RWRCLE
OHIO REGIONAL WEATHER ROUNDUP
NATIONAL WEATHER SERVICE WILMINGTON, OH
1100 AM EDT SAT MAY 28 2016

NOTE: "FAIR" INDICATES FEW OR NO CLOUDS BELOW 12,000 FEET WITH NO
SIGNIFICANT WEATHER AND/OR OBSTRUCTIONS TO VISIBILITY.

OHZ001>008-015>018-024>027-034-035-043-044-281600-
   NORTHWEST OHIO

CITY           SKY/WX    TMP DP  RH WIND       PRES   REMARKS
DEFIANCE       PTSUNNY   81  65  58 S10       30.05R
FINDLAY        FAIR      83  63  50 SW14      30.07R
TOLEDO EXPRESS FAIR      81  65  58 SW9       30.05S
TOLEDO EXEC    FAIR      82  65  56 SW10G17   30.06S
LIMA           FAIR      79  65  62 SW13      30.08S
$$

OHZ009>014-019>023-028>033-038-089-281600-
   NORTHEAST OHIO

CITY           SKY/WX    TMP DP  RH WIND       PRES   REMARKS
CLE-HOPKINS    CLOUDY    79  66  64 SW8       30.12R
CLE-LAKEFRONT  FAIR      80  68  66 W9        30.08R
CUY CO. ARPT   CLOUDY    86  68  54 S10       30.10S
LORAIN-ELYRIA  CLOUDY    77  65  66 S6        30.10R
ASHTABULA      FAIR      83  70  64 SE7       30.12S
AKRON-CANTON   FAIR      81  66  60 SW8       30.13R
WOOSTER        PTSUNNY   79  66  64 SW10      30.14R
MANSFIELD      PTSUNNY   76  66  71 S9        30.12F
YOUNGSTOWN     PTSUNNY   82  65  56 SW7       30.13S
$$

OHZ042-051>053-060>062-070>072-077>081-281600-
  SOUTHWEST OHIO

CITY           SKY/WX    TMP DP  RH WIND       PRES   REMARKS
CINC-COVINGTON PTSUNNY   78  68  71 S9G16     30.11R
CINC-LUNKEN    PTSUNNY   76  68  76 S10       30.11S
HAMILTON       FAIR      80  68  66 VRB3      30.11S
DAYTON         PTSUNNY   77  66  68 S13       30.12R
WRIGHT-PAT AFB FAIR      78  68  71 SW10      30.11R
DAYTON GENERAL PTSUNNY   77  65  66 S14       30.11R
WILMINGTON     FAIR      78  66  66 SW9       30.12S
$$

OHZ036-037-039>041-045>050-054>059-063>069-073>076-082>088-281600-
  CENTRAL AND SOUTHEAST OHIO

CITY           SKY/WX    TMP DP  RH WIND       PRES   REMARKS
COLUMBUS       PTSUNNY   78  65  63 VRB7      30.12R
OSU AIRPORT    PTSUNNY   80  66  62 SW10      30.12R
BOLTON FIELD   PTSUNNY   79  68  69 SW14      30.13R
RICKENBACK AFB FAIR      79  67  66 W8        30.11S
NEWARK         CLOUDY    82  66  58 SW12      30.12S
MARION         FAIR      77  66  68 S12       30.11S
LANCASTER      FAIR      81  66  60 W9        30.13S
ZANESVILLE     FAIR      82  67  60 S6        30.14R
NEW PHILLY     FAIR      84  65  52 VRB7      30.14R
$$




USA.gov is the U.S. government's official web portal to all federal, state and local government web resources and services.